Theta_e
309 310 311 311 311 312 313 313 313 312 313 314 316 318 317 318 318 318 317 316 316 316 315 314 313 314 315 316 316 316 318 319 319 320 321 321 322 324 325 326 326 329 332 334 334 335 336 335 334 331 330 328
309 310 311 311 312 313 312 311 311 311 312 312 314 316 316 317 317 316 315 316 316 315 314 314 313 314 314 315 315 314 315 317 318 319 320 321 322 322 323 324 324 326 330 333 333 334 335 333 332 330 329 332
304 309 310 311 311 309 309 309 309 310 310 310 311 313 314 315 314 314 314 314 315 314 313 314 313 312 312 314 314 315 315 317 318 318 319 320 321 321 322 323 323 325 329 331 332 335 332 332 330 329 329 330
302 308 309 309 308 308 307 307 307 308 307 307 309 311 313 314 311 310 309 314 310 312 313 312 311 312 312 313 313 313 315 315 316 317 318 319 320 320 320 321 322 325 328 329 332 332 331 330 329 329 329 331
303 305 309 307 309 308 307 307 306 307 307 308 309 310 311 311 307 307 307 308 308 311 309 311 311 311 312 312 312 312 313 314 315 316 317 318 318 319 319 320 322 324 326 327 331 330 329 328 329 329 330 330
305 304 305 300 300 300 303 305 308 302 302 307 303 310 307 307 307 306 306 307 310 309 310 310 311 311 311 310 311 312 312 313 314 316 316 317 318 319 319 320 320 324 325 328 331 329 327 327 328 329 330 328
304 301 300 300 299 300 303 302 302 298 300 299 302 305 305 307 306 306 306 307 311 311 311 311 312 312 311 310 310 310 310 312 313 314 315 317 318 318 318 317 319 321 325 329 329 327 327 327 327 327 327 324
300 300 300 299 298 297 297 297 298 297 297 297 300 302 305 307 306 306 306 309 311 311 309 310 312 312 311 311 311 312 310 312 313 314 314 314 315 316 316 313 315 320 326 329 327 327 327 327 327 325 324 324
299 301 300 299 297 297 297 296 296 297 296 296 298 301 305 308 306 305 305 306 308 309 309 310 310 312 308 307 307 311 307 307 310 312 311 311 313 309 310 313 315 319 327 329 327 328 328 327 327 325 324 324
301 303 299 298 298 297 297 297 296 296 295 296 297 300 305 307 306 305 305 306 307 309 310 310 310 312 312 310 310 311 309 309 310 309 311 314 314 311 312 314 317 320 327 329 328 329 328 327 326 325 324 324
300 300 300 299 299 298 296 296 296 294 295 296 296 298 303 304 304 305 306 307 308 310 310 310 310 311 313 313 313 314 316 316 317 315 318 318 318 318 318 319 320 323 328 329 328 328 327 326 325 325 323 322
299 299 300 300 301 297 299 298 295 294 296 298 294 298 301 303 304 305 306 308 309 311 311 311 312 311 312 314 314 315 317 316 317 318 320 323 323 323 324 323 324 327 330 329 329 327 326 325 325 324 323 322
299 299 299 300 298 297 302 296 295 296 297 294 294 296 298 300 303 305 307 308 309 312 311 311 312 312 311 311 312 313 314 315 315 315 316 318 316 315 315 315 315 316 318 323 329 327 326 325 323 322 321 320
299 299 299 299 299 298 299 295 296 297 294 293 293 293 296 299 304 305 306 308 309 311 311 311 312 311 311 310 311 311 312 313 312 312 313 313 312 311 311 311 312 312 313 313 315 323 325 325 321 319 318 317
300 300 299 300 299 298 297 296 298 296 295 294 293 295 296 298 302 305 306 307 308 311 311 311 311 311 311 310 309 310 310 311 311 311 310 310 310 309 309 308 309 310 309 310 311 312 315 316 317 316 314 313
300 299 299 300 298 297 297 298 296 294 295 296 293 295 295 296 299 304 305 307 308 311 311 310 311 311 311 310 310 310 310 310 310 310 309 309 309 309 308 308 307 308 307 307 308 309 310 311 312 312 312 311
299 299 300 299 298 298 299 297 296 295 295 294 294 294 295 295 297 302 305 305 307 311 311 311 310 311 310 310 311 310 310 310 310 310 308 307 306 306 306 306 307 307 306 305 305 306 307 308 308 309 309 309
300 299 299 299 297 298 298 296 295 296 295 295 295 294 293 295 296 300 303 305 306 310 311 311 310 310 311 310 311 311 310 308 307 307 308 307 305 304 304 304 304 305 304 305 305 305 305 306 306 306 306 306
301 301 300 299 298 298 298 297 296 295 295 293 294 294 292 294 296 297 301 305 305 306 309 310 310 310 311 312 311 310 309 308 307 306 305 306 305 304 304 304 304 304 304 304 303 304 304 304 305 305 305 305
302 302 300 299 302 297 299 297 297 295 294 294 294 294 293 293 296 296 297 303 305 305 307 308 309 310 311 312 311 311 309 308 307 306 306 306 305 303 302 302 302 303 303 303 303 304 304 304 305 305 305 304
301 302 301 300 299 299 299 297 296 295 295 294 294 293 292 294 296 293 296 299 303 304 305 306 308 309 310 312 311 311 310 309 308 307 306 305 306 305 302 302 301 302 303 303 303 303 303 304 304 303 304 304
301 300 300 300 300 301 298 297 297 296 297 295 294 293 293 295 295 294 294 296 300 303 304 306 306 307 308 309 310 309 309 309 309 308 306 304 305 305 304 304 303 302 302 303 302 302 302 303 303 303 303 303
301 300 300 300 300 299 299 299 298 296 296 296 294 294 295 295 296 294 294 294 296 300 303 304 305 306 306 307 307 306 306 306 307 307 308 306 305 305 303 302 303 303 303 303 302 302 302 302 302 303 303 303
299 299 298 297 298 298 299 298 298 298 296 295 295 296 296 295 295 294 296 293 294 296 299 302 304 305 306 306 305 304 304 303 304 304 304 304 305 305 305 305 304 302 303 303 302 302 302 302 302 301 300 301
298 298 297 297 298 296 297 296 297 297 297 295 295 297 296 295 295 294 295 294 294 294 296 298 302 304 305 305 305 303 303 304 305 305 305 305 304 303 303 303 305 306 305 302 301 303 302 302 302 301 301 301
298 298 298 297 296 296 296 295 296 296 296 297 298 296 296 296 294 294 294 295 294 294 294 294 296 301 303 304 304 304 304 304 305 305 304 305 303 304 302 301 303 304 303 302 301 299 301 301 300 300 301 301
298 299 299 299 298 298 296 297 297 296 297 298 296 296 296 296 296 295 294 294 295 294 294 293 294 295 300 303 304 303 303 303 303 304 304 304 302 301 303 301 303 303 303 299 301 303 301 299 298 300 300 302
300 301 300 301 301 299 298 297 298 298 297 297 297 296 296 296 295 295 294 294 294 293 293 294 293 294 295 299 301 301 301 302 302 303 303 304 303 302 300 300 301 302 302 301 299 297 300 300 300 297 297 297
300 300 300 299 299 299 298 298 297 296 295 297 297 297 297 297 296 296 294 294 294 294 293 294 294 294 294 294 296 299 299 300 301 301 302 303 302 302 300 301 300 302 303 302 301 298 297 297 297 296 297 299
300 298 298 297 296 295 295 295 296 295 295 296 296 296 297 297 297 296 295 294 295 294 295 293 294 294 293 293 293 296 295 297 298 299 300 301 301 301 302 300 301 299 301 301 302 302 300 298 296 294 296 297
300 299 298 297 297 296 296 295 296 296 297 297 296 297 297 296 297 297 295 294 294 294 294 293 293 294 294 293 293 294 293 294 295 296 299 299 300 300 301 301 298 300 300 300 301 302 301 301 301 299 296 295
Wind_Speed
14 16 16 17 17 18 18 19 19 20 20 21 21 22 22 23 22 21 20 17 18 16 16 15 14 14 15 15 13 12 12 12 12 12 11 11 11 11 9 7 6 6 7 10 7 5 15 15 10 12 7 3
13 15 16 17 18 18 18 18 19 19 20 20 20 21 23 24 23 21 18 18 19 17 16 17 15 13 13 13 12 12 12 10 10 11 12 11 11 10 9 8 4 6 9 10 10 6 12 16 15 16 13 1
5 13 15 16 17 17 18 18 19 19 20 19 18 20 22 23 22 19 18 18 18 16 17 17 15 14 13 13 13 12 11 12 10 11 11 12 10 10 10 8 6 4 7 9 9 6 12 15 16 17 10 2
4 7 14 15 16 16 17 17 18 18 18 18 17 17 22 24 16 14 13 19 15 17 18 17 15 15 13 13 13 12 11 10 10 10 11 11 11 10 9 8 7 5 6 8 5 12 12 14 18 10 4 4
4 5 11 8 11 13 14 15 16 16 14 12 9 11 15 16 11 8 8 8 8 16 13 16 14 14 14 12 11 10 10 10 9 11 11 11 10 10 9 8 8 6 4 5 3 12 13 15 11 6 5 4
3 4 5 7 6 5 7 8 10 7 7 9 6 9 10 9 9 8 8 8 8 7 10 10 12 11 11 9 8 9 9 10 10 10 12 11 10 11 9 9 4 2 2 1 2 7 14 8 5 7 6 4
4 4 5 6 5 5 7 8 6 6 6 5 7 7 8 7 7 9 8 8 9 8 15 13 15 13 11 9 6 5 7 8 10 11 11 10 11 10 10 5 2 2 2 2 6 8 8 5 5 5 4 3
4 4 5 4 5 6 6 6 6 6 5 5 6 7 7 7 8 10 8 11 12 10 8 8 11 11 13 11 10 10 6 9 10 11 9 10 10 8 3 3 4 3 3 4 5 5 6 7 4 5 6 6
4 4 5 3 5 5 6 6 7 6 4 5 7 7 7 7 7 8 8 8 7 6 7 8 7 5 5 5 4 7 6 5 7 7 5 4 4 2 3 4 5 4 4 6 7 7 7 8 7 7 4 3
3 5 3 3 4 6 6 5 7 6 6 6 6 6 7 8 8 8 7 7 8 7 6 7 7 6 5 6 7 5 6 6 6 6 6 5 5 4 5 5 5 4 2 6 7 7 9 10 8 7 7 7
4 3 2 2 3 4 6 6 6 6 6 6 4 6 6 7 7 7 8 7 8 8 6 6 5 6 5 6 6 8 7 8 4 1 2 5 5 5 5 4 4 3 3 7 7 8 10 11 12 12 10 9
4 2 2 3 2 3 5 6 5 6 6 5 6 5 6 6 5 6 8 8 8 8 7 7 5 4 6 6 6 7 7 8 7 6 6 3 2 2 2 2 1 4 5 6 6 8 8 8 9 9 7 4
3 2 3 2 2 3 4 4 4 6 6 5 5 5 6 6 6 5 7 8 9 7 7 7 7 6 6 6 6 6 6 7 6 6 6 6 5 6 5 6 6 7 6 1 6 7 8 7 5 4 5 5
3 2 3 2 2 4 3 4 6 5 5 5 5 4 5 6 5 5 5 7 8 7 7 7 6 6 6 6 6 6 6 6 6 6 6 6 6 7 7 7 6 7 7 8 6 3 6 6 3 4 5 5
3 3 3 2 3 4 2 3 6 6 5 5 4 5 4 5 6 6 5 6 8 7 7 7 6 5 4 5 6 6 5 5 5 5 6 6 6 5 5 6 6 7 7 8 7 7 7 6 5 6 5 6
3 3 2 2 3 4 1 3 5 6 5 4 5 4 4 5 7 6 4 5 6 6 8 7 7 6 6 5 4 5 5 5 5 5 5 6 6 6 6 7 8 6 7 8 7 7 8 6 6 6 6 6
3 3 2 2 3 3 1 3 4 6 6 5 5 4 4 5 7 6 5 6 6 4 6 6 7 7 5 5 4 4 5 6 5 4 5 6 5 6 7 8 7 6 8 8 7 7 7 6 7 6 5 5
3 3 2 3 3 2 1 2 4 4 5 5 6 4 5 4 6 6 6 5 7 4 4 5 6 7 6 4 3 4 4 6 6 6 5 5 5 6 7 8 6 7 8 6 6 6 5 6 5 5 5 5
3 3 3 3 4 1 1 2 4 4 3 4 5 4 5 4 6 5 7 6 6 6 4 4 5 7 6 5 5 5 5 4 4 5 5 5 5 6 7 7 6 7 7 6 7 5 4 5 5 5 5 4
3 3 4 3 4 2 0 2 4 3 2 3 4 4 4 4 5 4 7 7 7 6 6 4 4 5 6 4 4 5 5 4 5 5 4 4 3 5 6 6 7 6 6 6 5 4 4 4 4 5 4 4
2 2 3 4 4 2 1 3 3 4 1 3 3 3 4 4 5 4 5 7 7 7 6 5 5 4 4 4 5 4 5 6 5 6 5 6 6 4 4 6 6 5 5 5 5 4 4 3 3 4 3 4
3 3 4 4 5 4 4 4 3 3 1 1 3 2 4 4 5 4 5 5 7 7 7 5 5 5 5 4 5 5 5 5 4 4 4 5 5 5 5 5 5 6 5 4 3 3 4 3 3 3 3 2
4 4 5 6 5 4 3 4 4 4 1 1 2 1 2 4 4 4 5 4 5 6 7 7 6 6 5 4 4 4 4 4 3 3 3 4 5 5 5 5 5 4 4 4 4 4 4 4 4 2 2 1
4 5 4 3 1 2 2 3 1 2 4 2 2 0 2 3 4 3 4 4 5 4 6 7 6 6 7 5 3 3 3 3 2 2 3 3 3 4 4 4 3 3 4 3 3 3 2 2 2 3 2 2
2 2 4 3 2 2 2 3 2 3 3 3 2 0 1 3 5 3 4 3 4 4 5 6 6 6 7 7 5 3 2 1 1 1 1 2 3 3 4 3 2 1 2 1 1 1 2 1 1 0 1 1
2 1 1 1 3 2 3 4 3 3 3 1 1 1 2 3 3 3 4 2 3 3 3 5 6 6 5 6 7 6 4 4 4 4 4 3 1 1 4 2 1 2 2 0 1 1 0 1 1 2 3 3
3 1 2 1 2 1 3 3 4 4 4 1 1 2 3 3 3 3 3 2 2 3 2 3 4 6 6 5 6 7 6 5 6 6 6 6 4 3 1 2 1 2 4 1 2 2 2 1 0 1 2 3
2 2 2 2 1 4 3 6 4 5 4 4 3 4 3 3 4 3 2 3 2 3 3 2 2 3 5 5 5 6 6 5 5 6 6 6 7 4 3 3 0 1 2 2 2 2 0 2 2 2 1 3
2 1 1 3 4 4 4 4 4 4 5 4 4 3 3 5 4 3 3 2 2 2 3 2 2 2 2 3 4 4 5 4 4 4 5 6 6 7 2 6 2 1 1 2 1 4 1 1 1 1 1 1
2 2 3 2 3 3 3 4 2 3 2 2 4 5 4 4 5 4 3 3 2 1 2 3 1 1 2 3 3 3 3 4 4 4 4 5 4 5 6 3 5 3 2 1 1 1 1 2 2 2 3 1
3 3 3 4 5 5 5 5 5 3 2 2 2 1 1 3 4 5 4 4 4 3 2 3 3 2 2 3 4 2 2 3 1 2 1 2 4 4 5 5 3 6 3 2 1 1 1 1 1 1 1 2
Wind_Direction
328 326 327 328 327 323 321 320 322 326 329 331 333 338 338 338 337 335 333 325 321 326 324 317 308 302 300 297 294 286 282 282 279 274 267 265 266 266 263 280 293 302 318 327 328 234 186 175 175 163 216 237
326 327 326 325 323 320 320 321 321 324 327 330 333 341 342 339 341 337 332 324 327 329 329 324 316 315 311 304 300 292 279 275 283 275 272 267 264 260 256 268 300 296 307 328 322 249 178 159 165 167 198 336
318 325 321 320 321 325 327 326 324 326 330 332 335 341 342 339 338 335 336 336 330 326 326 329 330 321 310 302 296 295 286 276 277 278 268 266 262 258 255 273 284 298 304 326 321 178 144 155 156 174 189 123
317 309 316 321 328 330 331 330 329 332 334 333 336 342 344 342 331 333 334 333 333 323 330 328 326 320 317 312 307 299 288 279 269 272 270 258 261 264 257 268 273 255 291 316 319 150 150 157 152 171 156 103
307 301 312 325 320 325 326 331 332 335 331 326 329 344 338 334 327 328 325 329 334 328 322 323 318 322 328 323 310 298 289 267 259 259 260 253 249 259 258 267 259 254 282 311 1 161 158 151 151 155 147 114
311 302 324 324 315 322 327 326 329 334 327 329 328 341 336 328 330 328 323 321 331 322 314 303 314 338 335 334 318 301 287 268 256 252 245 247 243 246 245 257 259 276 286 231 70 168 141 118 131 142 135 126
311 329 332 309 320 325 332 321 331 330 324 332 332 332 328 324 329 331 322 320 327 339 326 325 331 327 315 292 281 271 270 257 245 248 249 242 239 241 239 260 279 218 222 114 118 150 140 119 115 118 93 110
325 329 306 304 325 328 321 317 333 324 324 336 327 324 324 328 338 336 325 325 332 346 329 320 320 312 293 300 300 277 256 242 232 234 235 237 241 247 278 288 256 222 183 116 111 137 136 128 109 102 140 156
319 302 296 323 324 322 313 325 329 317 334 330 320 324 328 337 338 335 328 327 331 333 327 320 322 317 297 295 284 269 243 248 226 214 216 211 227 238 254 245 245 237 173 136 145 157 144 137 139 152 155 179
292 298 307 331 313 316 313 335 318 322 336 321 321 331 339 343 339 327 323 327 330 324 328 323 329 326 324 316 300 270 244 235 172 188 199 178 190 194 213 221 240 246 212 144 149 157 149 143 151 158 180 191
286 279 303 306 306 320 313 324 316 331 324 313 327 331 345 346 337 330 328 331 333 327 335 332 329 326 328 336 339 346 346 2 14 349 172 166 182 190 189 207 231 234 228 146 159 160 156 158 159 174 179 190
278 282 325 298 305 315 298 314 324 322 311 310 337 333 341 340 329 332 330 335 335 326 334 344 332 329 342 338 344 357 354 359 8 0 0 35 93 122 84 48 308 232 185 147 160 161 156 166 170 161 171 152
268 294 291 286 310 300 295 310 321 307 307 325 332 338 336 336 334 337 334 338 334 321 338 347 0 352 352 348 356 3 9 358 3 356 4 29 42 50 51 45 27 22 32 86 160 164 161 167 169 148 139 134
277 278 282 286 292 277 294 316 313 303 314 323 337 337 333 331 332 332 334 342 332 332 342 351 5 6 354 357 357 359 9 8 12 7 10 23 29 43 36 46 34 28 38 41 27 114 152 154 105 94 102 92
259 262 269 277 275 278 293 321 307 305 314 325 336 327 332 334 331 327 334 342 332 338 343 354 355 9 349 15 5 359 2 7 21 29 29 33 38 54 61 59 45 32 41 43 37 40 64 63 80 77 73 74
253 266 256 280 285 291 285 320 298 308 317 326 332 327 336 347 331 325 336 332 333 340 349 358 358 3 14 21 20 3 359 6 17 38 43 46 51 58 67 65 54 42 46 50 38 39 50 56 71 72 78 82
257 270 280 284 289 285 293 298 313 310 313 326 330 329 337 357 333 325 339 327 325 343 359 6 2 354 14 22 25 12 20 13 360 13 42 47 45 55 60 60 63 63 52 51 42 39 47 57 60 61 75 76
276 283 292 280 280 285 355 313 309 301 313 331 325 332 338 1 336 326 331 331 323 334 2 18 14 353 359 20 26 26 22 29 17 18 27 45 56 60 64 66 59 64 61 51 52 46 44 59 59 63 66 69
240 261 265 277 271 289 271 306 289 292 317 330 322 337 337 358 336 330 333 330 328 320 349 19 25 3 352 16 17 23 27 34 29 25 31 22 45 60 63 71 68 69 78 71 55 51 48 60 68 69 72 67
221 235 250 252 267 255 171 275 285 282 306 318 320 334 339 347 332 335 338 332 331 329 337 5 21 19 355 5 26 30 25 30 42 22 23 24 32 63 57 64 59 51 74 74 80 70 62 71 71 83 83 78
269 247 262 264 253 241 218 243 264 284 282 312 317 335 343 338 327 334 346 337 332 334 331 348 357 2 8 15 25 29 33 28 32 43 29 25 30 35 83 84 85 74 65 67 68 67 68 64 86 87 98 108
267 264 252 246 248 230 212 228 229 251 272 295 309 343 350 322 328 335 344 345 337 336 331 337 349 346 351 24 47 37 36 37 29 47 60 48 30 34 35 47 62 70 66 59 52 48 49 38 67 104 112 115
266 268 265 257 251 261 236 248 232 210 239 227 280 7 337 318 325 333 339 343 344 343 335 336 347 344 342 11 38 60 67 49 22 24 46 73 69 73 68 64 55 58 61 48 35 32 25 16 9 15 33 40
268 266 269 301 310 300 238 252 233 201 196 199 242 71 325 317 306 338 329 340 348 354 344 338 344 344 339 352 23 40 52 61 57 54 59 54 94 94 85 97 105 107 80 85 88 63 38 26 14 2 6 359
255 301 333 334 293 267 308 321 302 288 252 201 181 129 282 299 301 331 325 339 355 353 353 345 337 347 344 342 351 14 29 43 47 28 84 151 111 107 102 84 93 116 125 144 47 156 156 191 223 134 267 262
299 277 236 246 280 314 306 315 318 303 326 277 171 197 233 280 295 319 307 329 344 347 359 354 346 340 346 344 341 338 355 2 14 1 10 17 55 89 126 128 118 146 88 97 205 137 255 272 239 206 216 221
252 274 288 243 271 335 303 278 267 255 240 256 271 239 214 235 271 283 305 321 337 322 344 13 357 340 334 349 341 344 347 357 5 357 359 0 22 352 337 122 164 117 120 167 294 238 120 257 106 294 304 256
222 243 276 336 297 282 248 261 289 302 293 267 263 275 244 230 237 243 268 291 317 330 337 360 349 353 345 339 345 335 341 349 6 356 350 357 352 17 2 349 358 155 130 123 76 27 126 233 168 328 293 218
199 230 299 275 280 275 310 318 299 307 301 249 220 233 210 227 217 231 246 271 284 275 303 316 336 352 339 330 330 338 345 355 355 339 355 352 356 350 13 342 348 320 83 99 131 144 59 335 69 194 241 158
182 195 216 270 289 292 256 276 264 252 243 207 217 226 210 188 184 197 219 240 265 283 294 306 308 324 321 323 331 348 345 325 2 359 14 350 341 340 344 348 333 318 324 190 172 182 181 172 177 187 262 60
166 206 228 228 231 235 251 261 272 259 293 254 252 234 183 202 188 195 193 221 224 237 247 263 289 291 291 293 301 301 344 324 359 336 42 360 351 329 332 347 335 318 292 326 318 237 264 205 246 145 75 255